Theta_e
290 289 289 289 289 288 289 289 288 288 288 288 288 288 288 288 288 289 289 287 289 289 289 290 290 291 294 300 302 304 300 301 300 302 303 303 305 305
288 288 287 287 288 288 288 287 287 287 287 287 286 287 286 287 287 287 288 288 288 288 288 288 289 290 291 293 297 299 300 298 297 297 297 300 305 307
288 288 288 288 288 287 287 286 286 285 285 285 285 285 286 286 286 287 287 288 288 287 286 287 288 288 290 290 292 295 297 297 298 296 296 296 304 305
288 288 288 288 287 286 285 285 284 284 284 284 284 285 285 285 286 286 287 287 287 287 285 286 286 286 288 289 290 291 295 295 296 297 296 300 297 300
288 288 287 286 285 285 284 284 284 283 283 283 283 283 283 283 284 285 286 287 287 286 286 286 285 285 286 287 289 290 291 294 295 295 295 296 298 296
288 286 285 284 283 283 283 283 283 283 282 282 282 282 282 283 283 284 284 286 286 286 286 286 285 285 285 286 287 288 289 292 294 295 295 293 293 293
286 284 283 282 281 280 281 281 281 281 281 281 281 282 282 282 283 283 283 284 285 286 286 286 286 285 286 285 288 288 288 290 292 292 293 294 294 292
284 282 281 281 280 280 280 280 280 279 280 281 282 282 282 282 283 283 283 283 284 285 285 285 285 286 286 286 288 289 289 289 290 292 292 292 293 293
282 281 281 280 280 279 279 280 281 281 281 281 281 282 282 282 283 282 283 283 283 284 284 284 285 285 285 285 286 288 289 290 290 291 293 293 292 291
281 280 279 279 279 279 280 280 281 280 280 281 281 281 282 282 282 282 282 282 282 283 283 283 284 285 284 284 284 285 288 289 289 290 291 291 292 292
281 279 279 278 278 279 279 279 279 280 280 280 280 281 281 281 281 281 282 283 284 284 284 283 284 285 284 283 284 284 285 286 288 289 289 290 290 291
279 279 278 278 277 278 278 278 278 279 279 279 279 280 281 282 282 282 281 282 283 283 284 283 284 284 285 285 284 285 284 285 285 286 288 289 289 289
279 278 278 278 277 277 277 277 278 278 279 279 279 280 280 281 281 282 282 282 282 283 283 283 284 284 284 286 285 285 285 285 285 285 285 286 287 288
279 278 277 277 278 278 277 277 278 278 278 278 279 279 279 280 281 282 282 283 283 284 284 284 284 284 284 285 286 285 286 286 286 285 284 285 285 286
279 278 276 276 278 276 276 276 277 277 277 277 278 279 280 281 281 282 283 283 284 284 285 285 285 285 285 285 285 286 285 286 286 286 284 284 285 285
278 278 276 276 276 276 275 276 276 275 276 277 278 279 280 281 282 282 283 284 285 285 285 286 285 285 285 285 285 285 286 286 286 286 286 286 286 286
278 279 277 276 276 276 275 275 275 275 276 277 278 279 279 280 281 282 283 283 284 284 285 285 285 285 285 285 286 286 286 286 285 285 285 286 286 286
278 278 278 277 276 275 275 275 275 275 275 276 277 278 278 279 279 280 281 282 282 283 283 284 285 286 286 285 285 285 285 285 286 286 286 285 286 286
279 278 279 278 276 275 275 275 274 274 274 275 276 277 277 278 278 278 279 279 280 280 281 282 283 284 285 286 285 285 285 285 285 285 285 285 285 286
280 278 278 278 277 276 275 275 275 275 274 274 274 275 275 276 277 277 277 278 278 279 280 280 281 282 283 283 283 284 284 284 284 284 285 285 285 285
280 279 278 278 278 277 276 276 275 275 275 274 274 274 274 274 275 276 276 277 277 277 278 279 280 281 282 282 282 283 283 283 283 283 283 283 283 284
280 280 279 278 277 277 276 276 275 275 275 275 274 274 274 274 274 275 275 275 276 276 277 279 280 281 282 282 283 282 283 283 282 282 283 283 283 284
281 280 280 279 278 277 277 276 275 275 274 274 274 274 274 274 273 273 274 274 274 275 277 279 280 281 281 282 282 282 282 282 282 282 282 282 282 282
Wind_Speed
19 19 19 19 20 20 20 21 18 29 32 29 31 23 23 23 23 23 22 25 25 24 21 18 15 14 12 12 16 24 22 23 20 19 18 19 20 20
19 17 17 18 19 21 23 25 23 26 35 31 32 30 27 26 24 25 23 25 27 26 25 24 20 16 13 13 15 20 23 24 23 23 18 19 20 21
17 17 18 21 23 22 23 23 24 23 28 33 29 27 27 26 23 22 21 21 21 24 25 25 24 22 17 13 13 14 20 23 27 28 26 20 18 20
18 18 22 25 29 24 23 22 22 22 25 31 29 27 25 23 22 21 19 21 21 21 24 23 22 22 21 18 14 12 17 19 23 26 26 30 26 21
19 25 29 30 27 23 23 25 24 23 22 24 30 26 26 24 23 20 21 22 23 22 23 22 21 20 20 19 18 16 14 18 25 26 21 24 30 27
25 29 30 26 23 23 24 24 23 23 22 24 28 27 24 21 20 20 20 19 20 19 19 21 20 18 19 20 19 21 17 14 15 18 25 25 22 20
28 28 28 28 29 26 22 21 21 22 24 24 25 23 22 19 18 16 18 18 19 18 18 17 15 15 14 18 16 17 21 20 16 15 15 18 24 21
27 28 28 27 20 21 19 18 17 18 21 22 23 23 24 22 19 18 17 15 19 16 17 16 13 11 11 14 18 17 18 22 23 23 22 18 20 22
26 26 24 18 17 15 14 18 20 21 21 23 24 23 24 20 18 19 18 17 19 17 17 19 17 16 15 15 22 22 20 21 23 25 29 27 24 21
23 21 18 17 15 15 20 20 20 19 17 19 20 23 23 21 20 20 20 20 19 18 17 18 14 16 13 16 20 24 27 25 23 23 24 27 30 30
20 18 16 16 17 17 19 19 18 18 17 20 20 19 19 19 20 19 18 18 15 14 13 13 12 14 15 17 20 23 25 29 30 28 25 23 21 22
19 17 17 17 16 17 17 19 18 18 20 19 17 16 13 12 12 14 17 17 18 17 12 14 12 9 5 5 8 15 23 26 28 32 32 31 28 25
19 18 17 19 17 17 16 14 17 20 19 17 15 13 11 11 11 11 9 12 15 19 14 13 10 9 7 5 5 3 7 12 23 28 30 31 32 32
19 20 19 19 18 17 16 16 16 16 17 14 13 13 12 12 12 12 12 11 12 14 14 12 13 10 9 7 5 4 5 7 9 17 27 27 26 27
18 19 19 17 16 17 16 16 16 16 15 13 13 14 13 11 9 9 8 10 11 12 11 12 13 12 11 10 6 3 3 5 5 6 15 24 22 22
18 18 18 16 15 15 15 14 14 15 14 12 12 13 12 10 9 10 8 6 4 3 3 4 6 7 10 9 8 6 5 4 8 9 11 16 21 20
17 16 16 15 15 14 14 14 15 15 13 11 11 12 13 12 11 10 9 8 8 6 4 1 3 6 8 8 8 5 4 4 5 8 10 13 16 19
16 16 15 15 15 15 15 15 15 16 15 12 12 12 12 12 12 10 8 7 7 6 6 6 6 3 3 4 7 6 6 5 8 10 11 12 12 17
15 14 14 14 14 14 15 15 15 16 15 14 12 12 12 11 10 10 9 8 7 7 6 5 4 4 2 1 4 3 4 4 4 5 6 7 7 11
15 14 13 13 12 13 13 14 14 15 15 14 13 13 12 11 10 9 9 9 8 7 7 6 4 3 1 2 2 5 6 4 2 2 5 8 11 12
16 14 13 12 12 12 12 13 13 14 15 15 14 13 13 12 10 9 9 8 9 9 7 5 6 6 4 4 4 4 5 4 3 2 3 2 3 4
17 15 14 13 12 12 12 12 12 13 13 14 13 13 13 13 12 10 11 9 9 10 7 4 2 1 2 4 3 3 4 3 3 3 2 1 2 2
18 16 15 13 12 12 11 11 11 11 12 12 13 12 12 11 11 11 11 10 11 8 7 4 1 1 1 2 3 3 4 3 1 1 2 2 1 1
Wind_Direction
301 300 299 299 297 300 299 296 294 297 296 298 297 296 293 292 290 291 285 280 285 289 296 302 302 307 291 248 228 217 174 195 199 194 203 205 206 205
298 300 303 303 297 293 290 290 289 288 290 293 291 292 292 290 288 286 279 273 275 275 280 280 285 292 301 295 263 211 207 193 188 187 194 194 197 198
301 303 305 299 294 295 294 291 289 287 288 291 290 293 293 293 290 285 273 269 276 280 278 278 278 274 275 285 291 282 239 218 206 193 195 192 190 208
289 292 299 300 300 298 295 292 290 289 289 290 293 295 292 289 288 284 271 264 269 279 281 280 276 276 268 263 270 280 252 234 226 207 203 210 202 207
290 302 303 303 301 300 297 296 294 289 286 285 290 291 291 289 288 281 275 267 267 273 277 278 276 269 264 257 250 258 264 256 231 210 197 206 205 205
299 302 303 301 300 301 298 296 294 290 287 287 290 292 291 290 287 282 275 268 267 268 275 272 276 274 262 255 247 242 248 250 241 217 213 196 194 202
306 309 307 304 305 299 295 294 292 291 290 288 288 290 290 290 285 284 280 272 264 266 271 274 275 279 271 251 250 243 236 234 226 230 234 228 210 197
313 312 310 313 312 309 308 308 303 296 293 289 288 286 284 285 283 282 280 278 272 264 268 269 268 270 266 247 235 234 228 230 228 223 220 224 220 213
317 316 316 318 318 315 318 321 312 305 300 298 289 285 284 283 284 282 277 269 268 266 270 267 267 269 262 257 237 227 222 219 220 221 219 222 224 227
321 324 319 319 319 322 319 312 308 307 302 300 284 294 285 277 274 274 275 275 279 265 260 267 269 268 272 257 247 237 231 224 220 219 218 221 224 228
328 327 322 319 321 319 319 317 315 317 310 307 301 301 293 282 279 279 273 270 269 270 248 250 272 275 275 266 251 242 238 233 228 225 222 221 220 219
332 329 326 325 324 323 318 315 321 320 320 319 314 307 309 311 300 281 266 257 257 270 259 255 277 261 279 282 251 241 239 239 235 230 228 227 227 228
330 331 330 332 329 325 321 324 314 318 325 326 326 322 312 308 304 297 303 264 249 251 250 254 255 243 248 265 280 254 241 241 238 233 229 228 227 229
332 334 335 338 336 335 332 324 319 321 328 332 332 331 325 315 306 297 284 277 273 263 253 258 245 244 244 248 248 237 264 241 246 233 226 224 226 228
334 336 339 340 341 340 338 333 330 330 333 339 341 343 345 340 338 332 308 285 274 273 265 261 263 258 252 244 249 241 248 255 231 226 217 213 217 222
337 341 344 346 343 345 351 352 352 346 342 344 350 355 359 6 11 9 8 4 343 307 267 258 237 231 243 243 247 258 274 220 228 221 212 215 221 224
337 340 344 348 350 354 0 3 4 4 360 353 357 2 5 5 7 9 18 38 45 55 54 46 215 226 230 245 254 256 238 233 231 233 234 226 224 224
334 338 342 347 350 352 354 1 4 6 7 5 358 358 2 3 1 2 7 18 28 33 34 40 55 73 177 226 230 240 260 279 243 243 242 241 233 229
328 331 336 341 345 348 350 353 358 3 4 2 359 353 351 352 359 358 359 357 357 356 350 349 1 15 336 273 270 220 215 274 282 233 230 236 241 222
317 322 328 331 336 339 343 347 352 357 0 1 359 358 356 352 350 352 357 356 346 333 330 331 322 302 327 298 273 257 256 255 234 235 238 240 237 232
307 311 318 322 325 329 332 336 342 347 352 355 357 355 356 359 357 350 346 340 340 339 332 319 292 263 250 260 284 286 265 213 219 229 240 240 236 234
298 303 306 312 315 318 321 326 331 338 343 347 350 353 355 356 358 358 355 354 352 349 350 345 351 191 223 232 268 296 203 212 269 284 248 203 162 165
292 294 297 301 304 309 313 318 323 327 334 341 346 349 352 355 356 357 357 357 358 4 8 23 48 112 130 212 225 217 199 212 236 298 292 243 214 187